Wind_Speed
6 6 5 5 4 5 5 4 4 5 5 3 2 1 1 1 1 3 4 4 4 5 6 7 7 7 8 8 9 10 11 11 11 12 12 13 13 14 14 14 15 15 16 16 17 17 17 17 16
5 5 5 4 4 4 3 3 3 4 3 2 1 1 3 3 3 4 5 6 6 7 7 8 8 8 8 8 9 9 10 10 11 11 11 12 13 13 14 14 15 15 15 16 16 17 17 17 18
5 5 4 4 4 3 1 1 2 2 2 1 2 3 5 5 4 5 7 8 8 7 7 7 7 7 7 8 8 8 9 9 10 10 11 12 13 13 14 14 14 15 15 16 16 17 17 18 18
4 4 3 4 4 2 1 1 2 2 2 3 3 4 6 6 5 5 7 8 8 7 7 7 7 7 7 7 8 8 9 9 10 10 11 12 12 13 13 13 14 15 15 16 16 17 18 18 19
4 3 3 4 4 3 3 3 3 4 4 4 4 5 7 7 5 5 6 8 8 8 7 7 7 7 7 7 8 8 9 9 10 10 11 11 12 13 13 14 14 15 15 16 16 17 17 18 19
3 2 3 4 4 4 4 4 5 4 4 5 5 5 7 8 6 5 6 8 9 8 7 7 7 7 8 8 8 9 9 9 10 11 11 12 12 13 13 14 14 14 15 15 16 17 18 18 19
2 1 2 3 4 4 4 6 6 6 6 5 6 6 8 9 7 6 7 8 9 9 8 7 8 8 8 9 9 10 10 10 11 12 12 13 13 13 14 14 14 15 15 16 17 18 18 19 20
1 1 1 2 3 5 5 6 7 7 7 6 6 7 9 10 9 8 7 8 10 10 9 9 9 10 10 10 11 11 11 12 12 13 13 13 14 14 14 15 15 16 16 17 17 18 19 20 21
3 3 3 3 4 5 6 7 8 9 9 7 7 8 10 11 11 10 9 10 11 12 12 12 12 12 12 12 13 13 13 13 14 14 15 15 15 15 16 16 16 17 17 18 19 20 20 21 22
6 6 5 5 6 6 8 8 9 9 11 10 9 10 11 12 12 12 12 12 13 14 14 14 14 14 14 15 15 15 15 16 16 17 17 17 18 18 18 18 19 19 20 20 21 22 23 23 24
8 8 8 8 8 8 9 10 11 11 12 12 12 12 14 14 14 15 14 14 15 16 17 18 17 17 17 18 18 18 19 19 19 19 20 20 21 21 21 22 22 22 23 24 24 25 26 26 27
11 11 10 10 10 11 11 12 13 13 13 14 14 14 15 17 17 17 18 18 18 18 20 20 20 20 21 21 21 21 22 22 23 23 23 23 24 24 24 25 26 26 27 27 28 29 30 30 31
13 13 13 13 13 13 14 15 15 15 15 15 15 15 16 18 19 20 20 21 21 21 21 22 22 23 24 24 24 25 25 25 26 26 26 27 27 28 28 29 29 30 31 31 32 33 34 35 35
16 16 16 15 15 15 16 17 16 16 16 16 17 17 17 18 20 21 22 23 23 23 24 24 24 25 26 27 27 28 28 28 29 29 30 30 31 31 32 32 33 34 34 35 36 37 37 38 39
19 18 18 17 17 16 17 20 19 18 17 18 19 20 20 20 21 22 23 24 25 25 25 26 26 27 27 29 30 30 31 31 32 32 33 34 34 35 35 36 37 38 38 39 40 41 41 42 43
21 20 20 20 19 19 19 22 23 21 20 20 20 21 21 21 22 23 24 25 25 26 27 28 28 29 30 31 32 32 33 33 34 36 36 37 38 38 39 39 40 42 42 42 43 45 45 46 47
22 22 22 22 21 20 21 22 24 23 22 22 22 22 21 22 22 23 24 25 26 26 27 28 30 31 32 33 33 34 35 36 37 38 39 40 41 42 42 43 44 45 46 47 48 48 50 50 51
23 23 23 24 23 23 23 24 24 23 23 23 22 22 21 21 21 22 23 24 25 26 26 28 29 31 33 34 35 36 37 37 38 39 41 42 44 45 46 47 48 49 50 50 52 52 53 54 56
23 23 23 25 24 24 24 24 23 22 23 22 22 22 21 21 21 21 22 23 24 25 26 27 29 31 32 34 35 36 37 38 39 41 42 44 47 48 50 50 51 52 53 54 56 57 58 58 60
22 22 22 23 24 23 24 24 22 21 21 21 21 21 21 21 21 21 22 23 24 25 27 28 29 31 32 34 36 37 38 39 41 43 44 47 49 51 52 53 54 56 57 58 59 61 61 62 63
20 20 20 20 20 22 23 23 20 19 19 19 19 20 21 21 22 22 23 24 25 26 27 28 30 31 33 34 36 38 39 40 42 44 46 48 50 52 54 56 57 59 60 61 62 64 64 65 66
17 18 18 17 17 18 20 22 20 19 18 19 19 20 21 22 23 24 24 25 26 27 28 29 31 32 34 35 37 38 40 41 44 46 48 50 52 54 56 58 60 61 63 64 65 66 67 68 68
15 16 16 15 15 16 18 20 22 20 20 19 19 20 21 23 24 25 26 27 27 28 29 30 32 33 35 36 38 39 41 43 45 47 49 51 54 56 58 59 61 63 64 65 67 68 69 69 69
14 15 15 15 15 16 17 19 21 22 21 21 21 21 23 24 24 25 27 28 30 31 32 33 34 35 36 37 39 40 42 44 46 48 50 52 54 56 58 60 62 63 65 66 67 68 69 69 69
14 16 17 16 16 17 18 19 21 22 23 23 22 23 23 23 24 26 28 30 32 32 33 34 35 36 37 38 40 41 43 45 46 48 50 52 54 55 57 60 61 63 64 65 66 67 68 68 69
16 17 18 19 18 17 19 19 22 23 24 24 23 23 23 24 26 28 30 32 33 34 34 35 36 37 38 39 41 42 44 45 46 48 50 52 54 56 58 60 61 63 64 65 66 67 68 69 69
18 18 19 21 21 20 19 19 22 25 26 26 25 25 26 27 29 31 32 33 34 35 36 37 37 38 39 40 42 44 46 47 49 50 52 53 55 56 58 60 61 62 64 65 66 67 68 69 69
20 20 21 23 24 24 21 19 24 26 27 27 28 29 29 30 31 32 33 34 35 36 37 37 39 40 42 44 46 47 49 51 53 54 55 56 57 58 60 61 62 63 64 65 66 67 67 68 67
22 22 23 25 26 27 26 20 25 26 28 30 31 31 32 32 33 34 35 36 37 38 39 41 42 44 46 47 49 51 53 55 56 57 58 59 60 61 62 63 63 64 65 66 66 66 66 66 66
23 23 24 26 27 28 28 23 25 28 30 31 32 33 34 35 36 36 37 38 40 41 43 44 46 48 50 52 54 56 58 59 60 61 61 61 62 62 63 63 64 64 65 65 65 65 65 65 64
Wind_Direction
115 114 111 111 110 107 112 123 122 111 101 93 81 63 317 276 260 265 266 269 270 269 270 271 272 275 277 279 280 282 283 283 283 282 282 280 280 279 278 277 276 275 274 274 274 273 273 272 271
108 109 106 99 89 90 128 140 123 104 90 71 31 335 298 289 279 275 275 277 277 275 274 275 276 278 280 282 284 285 285 285 285 285 285 284 282 281 280 280 279 279 278 276 276 276 275 274 274
103 99 88 80 77 81 167 164 112 85 61 11 331 307 293 288 281 278 276 278 279 278 278 279 281 282 284 286 287 288 288 289 289 289 288 286 285 284 283 282 282 281 280 279 279 279 278 278 277
98 85 75 65 58 46 337 5 42 37 12 346 326 308 293 288 285 279 276 278 280 280 279 280 283 284 286 287 288 290 291 291 291 291 290 289 287 286 285 285 284 284 284 283 283 282 282 281 280
92 76 61 54 41 19 360 8 21 15 355 337 324 309 298 293 281 274 273 276 279 282 281 281 284 286 287 288 289 290 291 292 292 292 291 291 290 289 288 287 287 287 287 286 286 285 285 284 283
107 78 54 40 32 22 1 1 6 360 342 325 314 303 290 289 286 275 271 275 279 283 284 282 284 286 288 289 289 291 292 293 293 293 293 293 292 292 291 291 291 290 289 289 288 288 287 287 286
139 74 39 26 14 3 357 354 352 347 336 320 311 303 290 290 290 278 270 271 276 281 284 283 284 287 288 289 290 290 291 292 292 293 293 293 293 292 292 291 291 291 291 291 291 291 291 290 289
219 280 356 2 350 345 348 344 339 334 328 323 314 301 289 291 290 283 275 272 274 277 281 281 281 284 286 287 288 289 289 290 291 291 292 292 291 292 291 291 291 292 292 293 293 294 294 293 293
248 267 294 314 326 331 335 331 326 322 321 322 314 300 293 291 290 286 280 274 274 276 278 280 280 281 283 283 284 285 285 286 287 289 290 290 290 290 290 290 290 291 292 293 294 294 295 295 296
255 268 283 296 309 316 318 316 314 312 313 318 313 300 295 291 289 287 282 276 274 275 276 277 278 278 279 280 281 281 282 283 284 285 286 287 288 288 289 289 289 290 291 292 292 293 293 294 295
258 268 279 289 297 302 306 308 307 307 310 312 306 300 295 291 288 286 283 279 276 275 275 276 276 276 276 277 278 279 280 280 281 282 283 284 285 285 286 286 287 288 289 289 290 290 291 292 293
257 265 274 285 291 296 301 303 304 307 311 309 305 301 295 292 290 287 285 282 279 276 276 278 277 276 276 276 277 278 278 279 280 280 281 281 282 283 283 284 285 286 287 287 288 289 289 290 291
257 265 272 279 288 294 296 297 300 306 310 308 305 301 294 291 290 288 286 283 281 279 278 278 277 276 276 276 275 276 276 277 278 279 279 279 280 282 282 283 284 284 285 286 287 288 288 289 289
258 264 271 279 286 290 293 295 299 305 308 306 303 300 295 291 288 287 285 284 283 280 279 278 276 276 276 275 275 276 276 275 276 277 277 278 278 279 280 281 282 283 283 284 285 286 287 287 288
258 263 269 275 280 285 292 294 296 301 304 304 302 301 298 293 290 287 286 284 283 281 280 278 276 275 274 274 274 275 275 276 276 275 276 277 277 277 278 280 280 281 282 283 284 285 285 286 287
260 264 269 275 279 283 287 290 295 298 300 300 298 297 296 294 291 288 287 285 283 282 280 279 278 276 274 273 273 274 274 275 275 275 276 276 276 277 278 278 279 280 281 282 283 283 284 285 286
261 265 269 274 276 278 281 284 291 297 299 299 299 297 296 294 291 289 287 285 283 282 281 280 279 277 276 274 274 273 273 274 274 275 276 276 276 276 277 277 278 279 280 281 282 282 283 284 284
263 266 270 273 275 278 282 285 289 295 298 299 299 299 297 295 292 290 288 286 285 284 282 281 280 279 278 277 276 275 275 275 275 275 275 275 276 276 276 277 278 279 280 281 281 282 282 283 284
266 268 271 275 278 282 285 288 292 296 297 300 301 301 299 297 294 292 290 289 288 286 284 282 281 280 280 280 279 278 278 277 277 276 275 275 275 276 277 278 279 279 280 280 281 282 282 283 284
268 269 272 276 281 284 287 290 295 297 299 301 302 301 300 299 298 296 294 292 291 289 287 286 284 282 281 280 280 280 279 279 278 277 276 276 277 278 279 280 280 280 281 281 282 282 283 283 284
272 273 274 278 282 287 289 292 296 298 299 299 299 299 298 299 300 299 297 296 294 291 290 288 286 285 283 282 282 282 281 281 280 279 279 279 279 279 280 280 281 281 281 282 282 283 283 284 284
273 276 279 281 284 287 291 294 296 298 299 298 299 299 300 301 302 301 300 298 296 294 293 291 289 288 287 286 285 284 283 282 281 281 281 281 280 281 281 281 281 281 282 282 282 283 284 284 285
275 278 282 285 286 288 292 295 298 301 300 302 303 303 304 304 304 303 301 300 298 297 295 294 292 291 289 288 288 287 286 285 284 284 283 282 282 282 282 282 282 282 282 282 282 282 283 284 284
279 282 284 287 290 291 293 295 298 300 302 305 306 306 306 306 305 303 301 300 299 299 298 297 296 294 293 292 291 290 289 288 287 286 285 285 284 284 283 282 282 282 282 282 282 282 283 283 283
280 284 287 289 292 295 296 297 297 300 303 305 307 307 306 305 304 302 301 301 301 301 300 299 299 298 297 296 295 294 293 292 291 289 288 287 286 286 285 284 284 283 282 282 282 282 282 282 283
281 285 289 293 295 297 299 301 300 301 302 304 305 306 305 305 304 303 302 302 302 302 302 301 300 300 299 299 298 298 296 295 294 293 292 290 289 288 287 286 285 284 283 282 282 282 282 282 282
282 285 289 293 294 296 297 300 297 298 300 303 305 306 308 308 306 304 304 304 303 303 302 302 302 302 301 300 300 299 298 297 296 295 294 293 292 290 289 288 287 286 285 284 283 283 282 282 282
284 288 291 293 296 297 299 302 299 300 303 305 307 309 310 309 306 305 304 304 304 304 304 303 303 303 302 301 301 300 299 298 297 297 296 295 294 292 291 290 289 287 285 284 283 283 283 282 282
286 289 290 292 295 298 300 306 301 302 303 304 307 308 309 307 306 306 306 305 304 304 304 304 304 304 303 302 301 300 299 298 298 297 296 295 294 293 292 291 290 288 287 286 285 284 283 283 283
284 287 289 291 293 295 298 306 302 301 301 303 306 307 307 307 306 306 305 304 304 304 304 304 304 303 303 302 301 300 300 299 298 297 296 295 294 293 292 291 290 289 287 286 285 284 284 284 283
Height
5875 5875 5876 5877 5877 5877 5876 5877 5875 5875 5875 5875 5875 5875 5875 5876 5876 5877 5875 5873 5873 5872 5872 5872 5871 5870 5870 5869 5869 5868 5868 5868 5867 5867 5866 5866 5865 5865 5865 5864 5864 5864 5863 5863 5863 5862 5862 5862 5862
5876 5876 5877 5877 5877 5877 5877 5876 5875 5874 5874 5874 5874 5874 5874 5874 5874 5874 5872 5871 5871 5871 5870 5870 5869 5869 5868 5867 5867 5866 5866 5865 5865 5864 5864 5863 5863 5863 5862 5861 5861 5860 5860 5860 5859 5859 5859 5858 5858
5877 5877 5878 5878 5877 5878 5877 5876 5875 5874 5874 5874 5874 5873 5873 5873 5873 5872 5871 5870 5870 5869 5869 5868 5867 5867 5866 5866 5865 5864 5864 5863 5863 5862 5862 5861 5861 5860 5859 5859 5858 5857 5857 5856 5856 5855 5855 5855 5854
5878 5878 5879 5878 5878 5878 5877 5876 5874 5873 5873 5873 5873 5872 5871 5871 5871 5871 5870 5868 5868 5867 5867 5866 5866 5865 5864 5864 5863 5863 5862 5861 5861 5860 5859 5859 5858 5857 5857 5856 5855 5854 5854 5853 5852 5852 5851 5851 5850
5878 5878 5878 5877 5877 5877 5877 5875 5874 5873 5872 5871 5871 5871 5870 5869 5869 5869 5868 5867 5866 5866 5865 5865 5864 5863 5863 5862 5861 5861 5860 5859 5859 5858 5857 5856 5855 5855 5854 5853 5852 5851 5850 5850 5849 5848 5848 5847 5846
5879 5878 5878 5877 5877 5877 5876 5874 5873 5872 5871 5870 5870 5869 5869 5867 5867 5867 5867 5866 5865 5864 5863 5863 5862 5861 5861 5860 5859 5859 5858 5857 5856 5856 5855 5854 5853 5852 5851 5850 5849 5848 5847 5846 5845 5845 5844 5843 5842
5878 5878 5877 5877 5876 5876 5875 5873 5872 5870 5870 5869 5868 5867 5867 5865 5865 5865 5865 5864 5863 5862 5861 5861 5860 5859 5859 5858 5857 5856 5856 5855 5854 5853 5852 5851 5850 5849 5848 5847 5846 5845 5844 5843 5842 5841 5840 5839 5838
5877 5878 5877 5876 5876 5875 5874 5872 5871 5870 5869 5868 5867 5866 5865 5864 5863 5863 5863 5862 5860 5859 5859 5858 5858 5857 5856 5856 5855 5854 5853 5852 5851 5850 5849 5848 5847 5846 5845 5844 5843 5842 5840 5839 5838 5837 5836 5834 5833
5877 5878 5876 5875 5875 5873 5872 5871 5869 5868 5867 5866 5865 5864 5863 5861 5860 5860 5860 5859 5858 5857 5856 5855 5855 5854 5853 5853 5852 5851 5850 5849 5848 5847 5846 5845 5844 5843 5842 5841 5839 5838 5837 5835 5834 5832 5831 5830 5828
5875 5875 5875 5874 5873 5872 5870 5869 5868 5866 5865 5864 5863 5861 5860 5859 5858 5857 5857 5856 5855 5854 5853 5852 5852 5851 5850 5849 5849 5848 5847 5846 5845 5844 5843 5842 5840 5839 5838 5837 5835 5834 5832 5831 5829 5828 5826 5825 5823
5873 5873 5873 5872 5871 5870 5868 5866 5865 5864 5863 5861 5860 5859 5857 5856 5855 5854 5853 5853 5852 5851 5849 5848 5848 5847 5846 5845 5845 5844 5843 5842 5841 5840 5838 5837 5836 5835 5833 5832 5830 5829 5828 5826 5824 5823 5821 5819 5818
5871 5871 5870 5869 5868 5867 5866 5864 5862 5861 5861 5859 5857 5856 5854 5852 5851 5850 5849 5849 5848 5847 5846 5844 5843 5842 5842 5841 5840 5839 5838 5837 5836 5835 5833 5832 5831 5829 5828 5827 5825 5823 5822 5820 5818 5817 5815 5813 5811
5868 5868 5867 5867 5866 5865 5863 5861 5860 5858 5857 5855 5854 5853 5851 5849 5847 5846 5845 5844 5843 5842 5841 5840 5839 5838 5836 5836 5834 5833 5832 5831 5830 5829 5828 5826 5825 5823 5822 5820 5819 5817 5815 5813 5811 5809 5808 5806 5804
5865 5865 5864 5864 5863 5862 5860 5857 5856 5856 5854 5852 5850 5849 5847 5845 5843 5842 5840 5839 5838 5837 5836 5835 5834 5832 5831 5830 5828 5827 5826 5825 5824 5823 5821 5820 5818 5817 5815 5813 5811 5809 5808 5806 5804 5802 5800 5797 5795
5861 5862 5861 5860 5859 5858 5857 5854 5852 5852 5851 5849 5846 5844 5843 5841 5838 5836 5835 5833 5832 5831 5829 5829 5828 5827 5825 5824 5822 5821 5819 5818 5817 5816 5814 5813 5811 5809 5808 5806 5803 5801 5799 5798 5795 5793 5791 5788 5786
5857 5858 5857 5856 5855 5854 5854 5851 5848 5848 5846 5844 5842 5840 5838 5835 5833 5831 5829 5828 5826 5824 5823 5821 5821 5820 5819 5817 5816 5814 5813 5811 5809 5808 5806 5804 5802 5801 5799 5797 5795 5792 5790 5788 5785 5783 5781 5778 5776
5853 5853 5852 5851 5850 5850 5849 5847 5844 5842 5841 5839 5837 5835 5832 5830 5828 5825 5823 5821 5820 5818 5816 5814 5813 5812 5811 5810 5809 5807 5806 5804 5802 5800 5797 5795 5793 5791 5789 5788 5785 5782 5780 5778 5775 5773 5770 5768 5764
5847 5847 5847 5845 5845 5844 5843 5841 5840 5838 5836 5833 5831 5829 5827 5825 5822 5820 5817 5815 5813 5811 5810 5807 5805 5804 5802 5801 5800 5799 5797 5796 5794 5792 5789 5786 5784 5782 5779 5777 5775 5772 5770 5767 5764 5761 5758 5756 5752
5842 5842 5841 5840 5839 5838 5836 5835 5835 5832 5830 5827 5825 5823 5821 5819 5817 5814 5812 5809 5807 5805 5803 5801 5799 5796 5794 5792 5791 5789 5788 5787 5785 5782 5780 5777 5774 5771 5768 5766 5764 5760 5758 5755 5752 5749 5746 5742 5738
5836 5836 5836 5835 5833 5832 5830 5829 5829 5827 5824 5822 5820 5818 5815 5813 5811 5808 5806 5803 5801 5798 5796 5794 5792 5789 5787 5784 5782 5780 5779 5777 5775 5772 5769 5766 5763 5760 5757 5754 5751 5748 5745 5742 5738 5735 5731 5728 5723
5831 5830 5830 5830 5828 5826 5825 5824 5823 5822 5820 5817 5815 5813 5810 5807 5805 5802 5800 5797 5795 5792 5789 5787 5784 5782 5779 5776 5774 5771 5769 5767 5764 5761 5758 5755 5752 5749 5745 5742 5738 5735 5731 5728 5724 5720 5716 5713 5709
5826 5825 5825 5825 5824 5822 5820 5818 5818 5816 5814 5812 5810 5807 5804 5802 5799 5796 5793 5790 5788 5785 5782 5779 5776 5773 5770 5768 5765 5762 5759 5756 5753 5750 5747 5743 5740 5736 5732 5729 5725 5721 5717 5713 5709 5704 5700 5696 5693
5821 5821 5820 5820 5818 5817 5815 5813 5812 5810 5808 5807 5804 5801 5799 5796 5793 5789 5786 5783 5780 5777 5774 5771 5768 5765 5761 5758 5755 5752 5749 5746 5742 5738 5735 5731 5727 5723 5719 5715 5710 5706 5702 5698 5693 5688 5684 5680 5675
5817 5817 5816 5815 5814 5813 5811 5809 5807 5804 5802 5801 5798 5796 5793 5790 5786 5783 5779 5776 5772 5769 5766 5762 5759 5755 5752 5748 5745 5741 5738 5734 5730 5726 5722 5718 5713 5709 5704 5699 5695 5690 5686 5682 5677 5671 5667 5663 5659
5814 5813 5812 5811 5810 5808 5806 5804 5802 5799 5796 5794 5792 5790 5787 5783 5780 5776 5772 5768 5764 5761 5757 5753 5750 5746 5742 5738 5734 5730 5726 5722 5718 5713 5709 5704 5700 5695 5689 5683 5679 5674 5669 5664 5659 5654 5650 5645 5641
5809 5808 5808 5806 5804 5803 5801 5798 5796 5793 5790 5788 5786 5783 5780 5777 5773 5768 5764 5760 5756 5752 5748 5744 5740 5737 5732 5728 5724 5719 5715 5710 5705 5700 5695 5690 5685 5679 5673 5668 5662 5657 5652 5647 5641 5637 5633 5628 5623
5804 5803 5802 5800 5798 5797 5796 5794 5790 5786 5784 5782 5779 5776 5773 5769 5765 5760 5756 5752 5748 5744 5740 5735 5731 5727 5722 5718 5713 5708 5702 5697 5692 5686 5681 5675 5669 5664 5657 5651 5646 5640 5634 5629 5623 5619 5615 5609 5605
5799 5798 5796 5794 5791 5790 5790 5788 5784 5780 5777 5774 5771 5768 5764 5761 5756 5752 5748 5743 5739 5734 5730 5726 5721 5716 5712 5706 5701 5695 5690 5684 5678 5672 5666 5659 5653 5647 5641 5634 5628 5622 5616 5610 5604 5600 5595 5590 5586
5794 5792 5789 5787 5785 5783 5781 5784 5777 5773 5770 5767 5763 5760 5756 5752 5748 5744 5739 5734 5729 5725 5720 5715 5710 5705 5700 5694 5688 5682 5676 5669 5663 5656 5650 5643 5636 5629 5623 5616 5609 5603 5597 5591 5585 5581 5576 5571 5567
5788 5786 5784 5782 5779 5776 5774 5778 5770 5767 5762 5759 5756 5752 5748 5743 5739 5735 5730 5725 5720 5715 5710 5704 5699 5693 5687 5681 5675 5668 5661 5654 5647 5640 5632 5625 5618 5611 5604 5597 5591 5584 5578 5572 5566 5562 5557 5552 5548